This is the latest recevied weather packets stored in our database for station/object KC1BRV. If no packets are shown the sender has not sent any weather packets the latest 10 day(s).
| Time | Temp. | Humidity | Pressure | Rain* | Wind** | Luminosity | Snow |
|---|---|---|---|---|---|---|---|
| 1788527134 | 23.33° C | 80% | 1011.3 hPa | 0 mm | - | 87 W/m² | - |
| 1788526829 | 23.33° C | 86% | 1011.7 hPa | 0 mm | - | 107 W/m² | - |
| 1788526526 | 22.78° C | 88% | 1011.4 hPa | 0 mm | - | 79 W/m² | - |
| 1788526220 | 22.78° C | 91% | 1011.4 hPa | 0 mm | - | 61 W/m² | - |
| 1788525916 | 22.22° C | 94% | 1011.4 hPa | 0 mm | - | 54 W/m² | - |
| 1788525612 | 21.67° C | 97% | 1011.4 hPa | 0 mm | - | 57 W/m² | - |
| 1788525311 | 21.67° C | 98% | 1011.4 hPa | 0 mm | - | 77 W/m² | - |
| 1788525007 | 21.67° C | 99% | 1011.5 hPa | 0 mm | - | 76 W/m² | - |
| 1788524701 | 21.67° C | 99% | 1011.6 hPa | 0 mm | - | 47 W/m² | - |
| 1788524395 | 21.11° C | 99% | 1011.6 hPa | 0 mm | - | 36 W/m² | - |
| 1788524092 | 21.11° C | 99% | 1011.6 hPa | 0 mm | - | 36 W/m² | - |
| 1788523788 | 21.11° C | 99% | 1011.6 hPa | 0 mm | - | 39 W/m² | - |
| 1788523483 | 21.11° C | 99% | 1011.6 hPa | 0 mm | - | 39 W/m² | - |
| 1788523178 | 21.11° C | 99% | 1011.4 hPa | 0 mm | - | 40 W/m² | - |
| 1788522874 | 21.11° C | 99% | 1011.4 hPa | 0 mm | - | 39 W/m² | - |
| 1788522574 | 21.11° C | 99% | 1011.4 hPa | 0 mm | - | 45 W/m² | - |
| 1788522274 | 21.11° C | 99% | 1011.3 hPa | 0 mm | - | 47 W/m² | - |
| 1788521970 | 21.11° C | 99% | 1011.5 hPa | 0 mm | - | 51 W/m² | - |
| 1788521668 | 20.56° C | 99% | 1011.4 hPa | 0 mm | - | 46 W/m² | - |
| 1788521368 | 20.56° C | 99% | 1011.5 hPa | 0 mm | - | 45 W/m² | - |
| 1788521064 | 20.56° C | 99% | 1011.3 hPa | 0 mm | - | 41 W/m² | - |
| 1788520771 | 20.56° C | 99% | 1011.5 hPa | 0 mm | - | 34 W/m² | - |
| 1788520455 | 20.56° C | 99% | 1011.3 hPa | 0 mm | - | 28 W/m² | - |
| 1788520151 | 20.56° C | 99% | 1011.2 hPa | 0 mm | - | 32 W/m² | - |
| 1788519849 | 20.56° C | 99% | 1011.3 hPa | 0 mm | - | 26 W/m² | - |
* Rain latest hour (hover to see other rain measurements)
** Current wind speed in m/s (hover to see current wind gust speed)